Location: Newark
(44.6028°N, 124.0883°W)
Time: 23:03:43
(UTC+00:00)

A-11 Canister half - Pass Details

Date: 25 October 2019
Orbit: 1514 x 1685 km, 47.2° (Epoch: 19 November)

Event Time Altitude Azimuth Distance (km) Brightness Sun altitude
Exits shadow 09:59:58 39° 73° (ENE) 2,267 10.0 -48.6°
Drops below altitude 10° 10:05:16 10° 72° (ENE) 3,800 11.5 -47.9°
Sets 10:08:18 0° 72° (ENE) 4,763 12.2 -47.5°
